| time (UTC) | temp C | wind direction | speed KPH | gust KPH | rain 1hr cm | rain 24hr cm | rain mn cm | humidity % | barometer mb |
| 20260901173039 | 29 | 5 | 0.0 | 0.0 | 0.08 | 0.08 | 0.08 | 69 | 1012.5 |
| 20260901171545 | 29 | 12 | 0.0 | 6.4 | 0.00 | 0.00 | 0.00 | 68 | 1012.4 |
| 20260901170030 | 28 | 10 | 1.6 | 6.4 | 0.00 | 0.00 | 0.00 | 62 | 1012.4 |
| 20260901164525 | 28 | 11 | 0.0 | 6.4 | 0.00 | 0.00 | 0.00 | 59 | 1012.3 |
| 20260901163020 | 27 | 13 | 1.6 | 8.0 | 0.00 | 0.00 | 0.00 | 52 | 1012.4 |
| 20260901161519 | 27 | 350 | 0.0 | 0.0 | 0.00 | 0.00 | 0.00 | 46 | 1012.5 |
| 20260901160015 | 26 | 350 | 0.0 | 0.0 | 0.00 | 0.00 | 0.00 | 33 | 1012.5 |
| 20260901154507 | 26 | 350 | 0.0 | 0.0 | 0.00 | 0.00 | 0.00 | 36 | 1012.5 |
| 20260901153003 | 26 | 355 | 0.0 | 0.0 | 0.00 | 0.00 | 0.00 | 39 | 1012.6 |
| 20260901151606 | 25 | 355 | 0.0 | 0.0 | 0.00 | 0.00 | 0.00 | 30 | 1012.5 |
| 20260901150055 | 25 | 355 | 0.0 | 0.0 | 0.00 | 0.00 | 0.00 | 3 | 1012.4 |
| 20260901144550 | 24 | 355 | 0.0 | 0.0 | 0.00 | 0.00 | 0.00 | 100 | 1012.4 |
| 20260901143052 | 23 | 276 | 0.0 | 0.0 | 0.00 | 0.00 | 0.00 | 100 | 1012.6 |
| 20260901141540 | 23 | 276 | 0.0 | 0.0 | 0.00 | 0.00 | 0.00 | 100 | 1012.8 |
| 20260901140036 | 22 | 276 | 0.0 | 0.0 | 0.00 | 0.00 | 0.00 | 100 | 1012.8 |
| 20260901134535 | 21 | 275 | 0.0 | 0.0 | 0.00 | 0.00 | 0.00 | 100 | 1012.7 |
| 20260901133026 | 20 | 275 | 0.0 | 0.0 | 0.00 | 0.00 | 0.00 | 100 | 1012.7 |
| 20260901131522 | 20 | 275 | 0.0 | 0.0 | 0.00 | 0.00 | 0.00 | 100 | 1012.6 |
| 20260901130018 | 20 | 275 | 0.0 | 0.0 | 0.00 | 0.00 | 0.00 | 100 | 1012.7 |
| 20260901124513 | -17 | 275 | 0.0 | 0.0 | 0.00 | 0.00 | 0.00 | 1012.6 | |
| 20260901123008 | -17 | 275 | 0.0 | 0.0 | 0.00 | 0.00 | 0.00 | 1012.4 | |
| 20260901121504 | -17 | 275 | 0.0 | 0.0 | 0.00 | 0.00 | 0.00 | 1012.3 | |
| 20260901114555 | -17 | 275 | 0.0 | 0.0 | 0.00 | 0.00 | 0.00 | 1012.1 | |
| 20260901113058 | -17 | 275 | 0.0 | 0.0 | 0.00 | 0.00 | 0.00 | 1012.2 | |
| 20260901111549 | -17 | 275 | 0.0 | 0.0 | 0.00 | 0.00 | 0.00 | 1012.1 | |
| 20260901110042 | -17 | 275 | 0.0 | 0.0 | 0.00 | 0.00 | 0.00 | 1012.2 | |
| 20260901104548 | -17 | 275 | 0.0 | 0.0 | 0.00 | 0.00 | 0.00 | 1012.1 | |
| 20260901103033 | 19 | 275 | 0.0 | 0.0 | 0.00 | 0.00 | 0.00 | 100 | 1012.0 |
| 20260901101532 | 19 | 275 | 0.0 | 0.0 | 0.00 | 0.00 | 0.00 | 100 | 1012.0 |
| 20260901100025 | 20 | 275 | 0.0 | 0.0 | 0.00 | 0.00 | 0.00 | 100 | 1012.1 |
| 20260901094520 | 20 | 275 | 0.0 | 0.0 | 0.00 | 0.00 | 0.00 | 100 | 1012.0 |
| 20260901093015 | 21 | 275 | 0.0 | 0.0 | 0.00 | 0.00 | 0.00 | 100 | 1012.0 |
| 20260901091511 | 21 | 275 | 0.0 | 0.0 | 0.00 | 0.00 | 0.00 | 100 | 1011.8 |
| 20260901090012 | 21 | 275 | 0.0 | 0.0 | 0.00 | 0.00 | 0.00 | 100 | 1011.8 |
| 20260901084502 | 20 | 275 | 0.0 | 0.0 | 0.00 | 0.00 | 0.00 | 100 | 1011.7 |
| 20260901083103 | 20 | 275 | 0.0 | 0.0 | 0.00 | 0.00 | 0.00 | 100 | 1011.9 |
| 20260901081602 | 21 | 275 | 0.0 | 0.0 | 0.00 | 0.00 | 0.00 | 100 | 1012.0 |
| 20260901080100 | 20 | 275 | 0.0 | 0.0 | 0.00 | 0.00 | 0.00 | 100 | 1012.1 |
| 20260901074555 | 20 | 275 | 0.0 | 0.0 | 0.00 | 0.00 | 0.00 | 100 | 1012.2 |
| 20260901073052 | 21 | 275 | 0.0 | 0.0 | 0.00 | 0.00 | 0.00 | 100 | 1012.3 |
| 20260901071546 | 21 | 275 | 0.0 | 0.0 | 0.00 | 0.00 | 0.00 | 100 | 1012.1 |
| 20260901070050 | 21 | 275 | 0.0 | 0.0 | 0.00 | 0.00 | 0.00 | 100 | 1012.1 |
| 20260901064543 | 21 | 275 | 0.0 | 0.0 | 0.00 | 0.00 | 0.00 | 100 | 1012.2 |
| 20260901063037 | 21 | 275 | 0.0 | 0.0 | 0.00 | 0.00 | 0.00 | 100 | 1012.1 |
| 20260901061529 | 21 | 275 | 0.0 | 0.0 | 0.00 | 0.00 | 0.00 | 100 | 1012.2 |
| 20260901060025 | 21 | 275 | 0.0 | 0.0 | 0.00 | 0.00 | 0.00 | 100 | 1012.1 |
| 20260901054520 | 21 | 275 | 0.0 | 0.0 | 0.00 | 0.00 | 0.00 | 100 | 1012.1 |
| 20260901053016 | 21 | 275 | 0.0 | 0.0 | 0.00 | 0.00 | 0.00 | 100 | 1012.0 |
| 20260901051511 | 22 | 275 | 0.0 | 0.0 | 0.00 | 0.00 | 0.00 | 100 | 1012.0 |
| 20260901050007 | 22 | 275 | 0.0 | 0.0 | 0.00 | 0.00 | 0.00 | 100 | 1011.9 |
| 20260901044505 | 22 | 275 | 0.0 | 0.0 | 0.00 | 0.00 | 0.00 | 100 | 1011.9 |
| 20260901043058 | 22 | 275 | 0.0 | 0.0 | 0.00 | 0.00 | 0.00 | 100 | 1011.8 |
| 20260901041555 | 22 | 275 | 0.0 | 0.0 | 0.00 | 0.00 | 0.00 | 100 | 1011.6 |
| 20260901040049 | 22 | 275 | 0.0 | 0.0 | 0.00 | 0.00 | 0.00 | 100 | 1011.5 |
| 20260901034544 | 22 | 275 | 0.0 | 0.0 | 0.00 | 0.00 | 0.00 | 100 | 1011.4 |
| 20260901033040 | 22 | 275 | 0.0 | 0.0 | 0.00 | 0.00 | 0.00 | 100 | 1011.4 |
| 20260901031536 | 22 | 275 | 0.0 | 0.0 | 0.00 | 0.00 | 0.00 | 100 | 1011.4 |
| 20260901030039 | 22 | 275 | 0.0 | 0.0 | 0.00 | 0.00 | 0.00 | 100 | 1011.4 |
| 20260901024530 | 22 | 275 | 0.0 | 0.0 | 0.00 | 0.00 | 0.00 | 100 | 1011.4 |
| 20260901023023 | 22 | 275 | 0.0 | 0.0 | 0.00 | 0.00 | 0.00 | 100 | 1011.3 |
| 20260901021518 | 23 | 275 | 0.0 | 0.0 | 0.00 | 0.00 | 0.00 | 100 | 1011.2 |
| 20260901020013 | 23 | 275 | 0.0 | 0.0 | 0.00 | 0.00 | 0.00 | 100 | 1011.1 |
| 20260901014508 | 23 | 275 | 0.0 | 0.0 | 0.00 | 0.00 | 0.00 | 100 | 1010.9 |
| 20260901013004 | 24 | 275 | 0.0 | 0.0 | 0.00 | 0.00 | 0.00 | 100 | 1010.6 |
| 20260901011607 | 25 | 275 | 0.0 | 0.0 | 0.00 | 0.00 | 0.00 | 100 | 1010.3 |
| 20260901010056 | 25 | 275 | 0.0 | 0.0 | 0.00 | 0.00 | 0.00 | 20 | 1010.3 |
| 20260901004556 | 26 | 275 | 0.0 | 0.0 | 0.00 | 0.00 | 0.00 | 36 | 1010.2 |
| 20260901003047 | 26 | 275 | 0.0 | 0.0 | 0.00 | 0.00 | 0.00 | 47 | 1009.9 |
| 20260901001544 | 27 | 275 | 0.0 | 0.0 | 0.00 | 0.00 | 0.00 | 55 | 1010.0 |
| 20260901000044 | 27 | 275 | 0.0 | 0.0 | 0.00 | 0.00 | 0.00 | 59 | 1010.0 |
| 20260831234533 | 27 | 275 | 0.0 | 6.4 | 0.00 | 0.00 | 0.00 | 64 | 1010.1 |
| 20260831233029 | 28 | 275 | 4.8 | 11.3 | 0.00 | 0.00 | 0.00 | 65 | 1010.1 |
| 20260831231526 | 28 | 259 | 8.0 | 11.3 | 0.00 | 0.00 | 0.00 | 66 | 1010.1 |
| 20260831230020 | 28 | 252 | 6.4 | 11.3 | 0.00 | 0.00 | 0.00 | 66 | 1010.0 |
| 20260831224515 | 28 | 235 | 8.0 | 11.3 | 0.00 | 0.00 | 0.00 | 69 | 1009.9 |
| 20260831223013 | 28 | 234 | 6.4 | 12.9 | 0.00 | 0.00 | 0.00 | 67 | 1009.8 |
| 20260831221523 | 28 | 246 | 6.4 | 11.3 | 0.00 | 0.00 | 0.00 | 67 | 1009.7 |
| 20260831220006 | 28 | 250 | 8.0 | 12.9 | 0.00 | 0.00 | 0.00 | 67 | 1009.7 |
| 20260831214503 | 28 | 248 | 6.4 | 11.3 | 0.00 | 0.00 | 0.00 | 68 | 1009.6 |
| 20260831213057 | 28 | 252 | 9.7 | 12.9 | 0.00 | 0.00 | 0.00 | 68 | 1009.5 |
| 20260831211553 | 29 | 244 | 8.0 | 14.5 | 0.00 | 0.00 | 0.00 | 67 | 1009.6 |
| 20260831210048 | 29 | 248 | 6.4 | 9.7 | 0.00 | 0.00 | 0.00 | 67 | 1009.5 |
| 20260831204543 | 29 | 250 | 6.4 | 11.3 | 0.00 | 0.00 | 0.00 | 67 | 1009.4 |
| 20260831203039 | 28 | 251 | 4.8 | 14.5 | 0.00 | 0.00 | 0.00 | 67 | 1009.6 |
| 20260831201538 | 29 | 250 | 8.0 | 14.5 | 0.00 | 0.00 | 0.00 | 69 | 1009.7 |
| 20260831200039 | 28 | 250 | 8.0 | 14.5 | 0.00 | 0.00 | 0.00 | 68 | 1009.7 |
| 20260831194526 | 28 | 241 | 3.2 | 12.9 | 0.00 | 0.00 | 0.00 | 67 | 1009.7 |
| 20260831193020 | 28 | 228 | 8.0 | 16.1 | 0.00 | 0.00 | 0.00 | 66 | 1009.8 |
| 20260831191520 | 27 | 248 | 6.4 | 12.9 | 0.00 | 0.00 | 0.00 | 63 | 1009.7 |
| 20260831190014 | 27 | 260 | 3.2 | 8.0 | 0.00 | 0.00 | 0.00 | 60 | 1009.5 |
| 20260831184516 | 27 | 276 | 0.0 | 8.0 | 0.00 | 0.05 | 0.00 | 51 | 1009.4 |
| 20260831183002 | 27 | 306 | 0.0 | 0.0 | 0.00 | 0.05 | 0.00 | 49 | 1009.4 |
| 20260831181557 | 27 | 17 | 0.0 | 0.0 | 0.00 | 0.05 | 0.00 | 54 | 1008.7 |
| 20260831180053 | 27 | 17 | 0.0 | 0.0 | 0.00 | 0.05 | 0.00 | 52 | 1008.8 |
| 20260831174549 | 26 | 17 | 0.0 | 0.0 | 0.00 | 0.05 | 0.00 | 50 | 1008.5 |